Regional Weather Roundup
Issued by NWS

Home | Current Version | Previous Version | Graphics & Text | Print | Product List | Glossary On
Versions: 1 2 3 4 5 6 7 8 9 10 11 12 13 14 15 16 17 18 19 20 21 22 23 24 25 26 27 28 29 30 31 32 33 34 35 36 37 38 39 40 41 42 43 44 45 46 47 48 49 50
000
ASUS45 KCYS 280810
RWRWY

WYOMING REGIONAL WEATHER ROUNDUP
NATIONAL WEATHER SERVICE CHEYENNE WY
200 AM MDT TUE JUL 28 2015

NOTE:  "FAIR" INDICATES FEW OR NO CLOUDS BELOW 12,000 FEET
WITH NO SIGNIFICANT WEATHER AND/OR OBSTRUCTIONS TO VISIBILITY.

WYZ001-280900-
YELLOWSTONE NATIONAL PARK

CITY           SKY/WX    TMP DP  RH WIND       PRES   REMARKS
LK YELLOWSTONE   N/A     33  32  96 CALM      30.27S
W YELLOWSTONE  NOT AVBL

$$
WYZ002>013-054>058-071-098>099-280900-
NORTHERN WYOMING

CITY           SKY/WX    TMP DP  RH WIND       PRES   REMARKS
JACKSON        FAIR      37  37 100 CALM      30.24S
CODY           FAIR      54  30  40 W9        30.07S
GREYBULL       FAIR      53  44  71 N6        30.02S
WORLAND        FAIR      46  42  86 S3        30.03S
SHERIDAN       FAIR      49  44  83 N10       29.98F
BUFFALO        FAIR      47  44  90 SW7       30.02R
GILLETTE       FAIR      49  45  86 W10       30.00R
HULETT         FAIR      52  46  82 W8        29.97R
NEWCASTLE      FAIR      52  45  76 NW9       29.99R

$$
WYZ014>020-022>026-101>103-280900-
CENTRAL WYOMING

CITY           SKY/WX    TMP DP  RH WIND       PRES   REMARKS
BIG PINEY      FAIR      33  25  72 W5        30.27S WCI  29
PINEDALE       FAIR      34  30  86 W6        30.27S WCI  29
DUBOIS         FAIR      41  30  65 NW17G25   30.17F
LANDER         FAIR      49  29  46 CALM      30.11R
RIVERTON       FAIR      52  33  48 NW17      30.11S
CASPER         FAIR      51  30  44 SW13      30.08R
DOUGLAS        FAIR      50  44  80 S6        30.06R

$$
WYZ021-027>030-104>119-280900-
SOUTHERN WYOMING

CITY           SKY/WX    TMP DP  RH WIND       PRES   REMARKS
EVANSTON       FAIR      49  33  54 NE6       30.30R
KEMMERER       FAIR      41  23  48 NW6       30.30R
FORT BRIDGER   SUNNY     46  32  57 W6        30.32R
ROCK SPRINGS   FAIR      53  33  46 W10       30.24R
DIXON          FAIR      45  31  58 CALM      30.26F
RAWLINS        FAIR      52  29  41 W7        30.21S
SARATOGA       FAIR      50  30  46 W10       30.25S
LARAMIE        FAIR      52  26  36 NE10      30.20R
CHEYENNE       LGT RAIN  61  30  31 NW24G38   30.08R
TORRINGTON     FAIR      61  49  64 N16       29.99R
PINE BLUFFS    FAIR      64  28  25 NW21G30   30.03R

$$



USA.gov is the U.S. government's official web portal to all federal, state and local government web resources and services.